Location: Observatory
(52.1446°N, 0.4624°W)
Time: 02:05:47
(UTC+01:00)

ISS - Pass Details

Date: 25 May 2018
Orbit: 402 x 406 km, 51.6° (Epoch: 21 June)

Event Time Altitude Azimuth Distance (km) Brightness Sun altitude
Rises 22:30:30 0° 256° (WSW) 2,319 0.3 -10.0°
Reaches altitude 10° 22:32:34 10° 254° (WSW) 1,460 -0.8 -10.1°
Maximum altitude 22:35:50 73° 169° (S) 426 -3.9 -10.4°
Drops below altitude 10° 22:39:06 10° 85° (E) 1,460 -1.3 -10.7°
Sets 22:41:11 0° 83° (E) 2,320 -0.2 -10.9°
